Juliana Airport, Sint Maarten

7:26 PM AST on June 26, 2017 (GMT -0400)
Princess Juliana International

Weather History for TNCM - August, 2013

Change the Weather History Date:

Thursday, August 29, 2013

  Actual Average Record
Temperature  
Mean Temperature 83 °F -  
Max Temperature 87 °F 87 °F 91 °F (1996)
Min Temperature 79 °F 78 °F 75 °F (2002)
Cooling Degree Days 18    
Growing Degree Days 33 (Base 50)    
Moisture  
Dew Point 75 °F    
Average Humidity 74    
Maximum Humidity 83    
Minimum Humidity 61    
Precipitation  
Precipitation 0.01 in 0.17 in - ()
Sea Level Pressure  
Sea Level Pressure 29.99 in    
Wind  
Wind Speed 7 mph ()    
Max Wind Speed 13 mph    
Max Gust Speed 26 mph    
Visibility 9.0 miles    
Events Rain    
Averages and records for this station are not official NWS values.
T = Trace of Precipitation, MM = Missing Value Source: Averaged Metar Reports

Daily Weather History Graph

Daily Weather History Graph

Search for Another Location

Airport or City:

Trip Planner

Search our weather history database for the weather conditions in past years. The results will help you decide how hot, cold, wet, or windy it might be!

Date:

Astronomy

Aug. 29, 2013 Rise Set
Actual Time 5:57 AM AST 6:28 PM AST
Civil Twilight 5:35 AM AST 6:50 PM AST
Nautical Twilight 5:09 AM AST 7:16 PM AST
Astronomical Twilight 4:43 AM AST 7:42 PM AST
Moon 12:10 AM AST (8/29) 1:28 PM AST (8/29)
Length of Visible Light 13h 15m
Length of Day
12h 30m
Last Quarter, 38% of the Moon is Illuminated
Aug 29
Last Quarter
Sep 5
New
Sep 12
First Quarter
Sep 19
Full
Sep 26
Last Quarter

Hourly Weather History & Observations

Time (AST) Temp. Heat Index Dew Point Humidity Pressure Visibility Wind Dir Wind Speed Gust Speed Precip Events Conditions
12:00 AM 82.4 °F 89.5 °F 75.2 °F 79% 30.01 in 6.2 mi East 11.5 mph - N/A   Partly Cloudy
1:00 AM 82.4 °F 89.5 °F 75.2 °F 79% 30.01 in 6.2 mi East 10.4 mph - N/A   Partly Cloudy
2:00 AM 82 °F - 75 °F 75% 30.00 in 16 mi East 8.1 mph - -   Partly Cloudy
2:00 AM 82.4 °F 89.5 °F 75.2 °F 79% 29.98 in 6.2 mi East 8.1 mph - N/A   Partly Cloudy
3:00 AM 82.4 °F 89.5 °F 75.2 °F 79% 29.98 in 6.2 mi East 4.6 mph - N/A   Scattered Clouds
4:00 AM 78.8 °F - 73.4 °F 83% 29.98 in 6.2 mi NNE 8.1 mph - N/A   Scattered Clouds
5:00 AM 80 °F - 74 °F 76% 29.98 in 16 mi 2.3 mph - - Rain Light Rain Showers
5:00 AM 80.6 °F 85.4 °F 73.4 °F 79% 29.98 in 6.2 mi Variable 2.3 mph - N/A   Partly Cloudy
6:00 AM 80.6 °F 85.4 °F 73.4 °F 79% 29.98 in 6.2 mi NE 5.8 mph - N/A   Partly Cloudy
7:00 AM 82.4 °F 89.5 °F 75.2 °F 79% 30.01 in 6.2 mi NE 5.8 mph - N/A   Partly Cloudy
8:00 AM 84 °F - 75 °F 69% 30.02 in 19 mi East 6.9 mph - -   Partly Cloudy
8:00 AM 84.2 °F 92.3 °F 75.2 °F 74% 30.01 in 6.2 mi East 6.9 mph - N/A   Scattered Clouds
10:00 AM 86.0 °F 95.1 °F 75.2 °F 70% 30.01 in 6.2 mi East 8.1 mph - N/A   Partly Cloudy
11:00 AM 86 °F - 75 °F 63% 30.03 in 19 mi SSE 11.5 mph - -   Partly Cloudy
11:00 AM 86.0 °F 95.1 °F 75.2 °F 70% 30.01 in 6.2 mi SSE 11.5 mph - N/A   Scattered Clouds
12:00 PM 82.4 °F 88.2 °F 73.4 °F 74% 30.01 in 6.2 mi SE 12.7 mph 26.5 mph N/A Rain Light Rain Showers
1:00 PM 86.0 °F 96.9 °F 77.0 °F 74% 29.98 in 6.2 mi SE 9.2 mph - N/A   Scattered Clouds
2:00 PM 86 °F - 76 °F 66% 29.98 in 19 mi SE 9.2 mph - -   Partly Cloudy
2:00 PM 86.0 °F 96.9 °F 77.0 °F 74% 29.98 in 6.2 mi SE 9.2 mph - N/A   Partly Cloudy
3:00 PM 86.0 °F 96.9 °F 77.0 °F 74% 29.95 in 6.2 mi SE 9.2 mph - N/A   Partly Cloudy
4:00 PM 86.0 °F 96.9 °F 77.0 °F 74% 29.95 in 6.2 mi SE 10.4 mph - N/A   Scattered Clouds
5:00 PM 87 °F - 76 °F 61% 29.97 in 19 mi ESE 5.8 mph - -   Partly Cloudy
5:00 PM 87.8 °F 97.6 °F 75.2 °F 66% 29.95 in 6.2 mi ESE 5.8 mph - N/A   Scattered Clouds
6:00 PM 86.0 °F 95.1 °F 75.2 °F 70% 29.98 in 6.2 mi East 8.1 mph - N/A   Scattered Clouds
7:00 PM 84.2 °F 92.3 °F 75.2 °F 74% 29.98 in 6.2 mi ENE 5.8 mph - N/A   Partly Cloudy
8:00 PM 84 °F - 76 °F 70% 30.01 in 19 mi East 6.9 mph - -   Scattered Clouds
8:00 PM 84.2 °F 92.3 °F 75.2 °F 74% 30.01 in 6.2 mi East 6.9 mph - N/A   Partly Cloudy
9:00 PM 84.2 °F 94.1 °F 77.0 °F 79% 30.01 in 6.2 mi East 8.1 mph - N/A   Partly Cloudy
10:00 PM 84.2 °F 94.1 °F 77.0 °F 79% 30.04 in 6.2 mi East 6.9 mph - N/A   Scattered Clouds
11:00 PM 84.2 °F 92.3 °F 75.2 °F 74% 30.01 in 6.2 mi ESE 9.2 mph - N/A   Partly Cloudy